Location: Cutler
(25.6150°N, 80.3110°W)
Time: 16:42:44
(UTC-05:00)

Tiangong 2 - Pass Details

Date: 14 November 2017
Orbit: 386 x 391 km, 42.8° (Epoch: 18 November)

Event Time Altitude Azimuth Distance (km) Brightness Sun altitude
Rises 17:57:09 0° 315° (NW) 2,269 5.4 -6.0°
Reaches altitude 10° 17:59:20 10° 324° (NW) 1,412 4.2 -6.5°
Maximum altitude 18:02:19 36° 33° (NNE) 625 1.8 -7.1°
Drops below altitude 10° 18:05:17 10° 103° (ESE) 1,405 3.4 -7.8°
Enters shadow 18:05:54 - 107° (ESE) 1,644 3.7 -7.9°
